Location: Easthampton
(42.2676°N, 72.6690°W)
Time: 14:22:53
(UTC+00:00)

Gurwin Techsat 1B - Pass Details

Date: 08 April 2023
Orbit: 811 x 813 km, 98.9° (Epoch: 02 June)

Event Time Altitude Azimuth Distance (km) Brightness Sun altitude
Rises 09:25:02 0° 357° (N) 3,348 12.0 -10.9°
Reaches altitude 10° 09:28:21 10° 335° (NNW) 2,411 11.0 -10.4°
Maximum altitude 09:31:16 15° 301° (WNW) 2,066 10.4 -9.9°
Enters shadow 09:34:05 10° 269° (W) 2,379 10.4 -9.4°
